Latest Coastal Weather Observations for Lombadina

IDW60701

Issued at 3:45 am WST Friday 19 September 2014 (issued every 10 minutes, with the page automatically refreshed every 10 minutes)

About coastal observations | Map of coastal stations | Coastal observations for WA | Marine services | Other Formats
Station Details ID: 503016 Name: LOMBADINA AIRSTRIP Lat: -16.52 Lon: 122.92 Height: 42.0 m
Data from the previous 72 hours. | See also: Recent months for locations in Western Australia
Date/Time
WST
Temp

°C
Wind Pressure Rain
since 9am
mm
Weather Cloud Vis
km
Sea
Height
m
Swell
Dir
 
Speed
knots
Gust
knots
hPa Trend Height
m
Period
s
Dir
19/03:30am 23.0 SW 4 9 1012.5 - - - - 10 - - - -
19/03:00am 23.0 SW 6 10 1012.4 - 0.0 - - 10 - - - -
19/02:30am 22.7 SW 5 8 1012.6 - - - - 10 - - - -
19/02:00am 22.7 SW 5 8 1012.6 - - - - 10 - - - -
19/01:30am 22.6 SW 5 9 1013.0 - - - - 10 - - - -
19/01:00am 23.0 WSW 5 9 1013.2 - - - - 10 - - - -
19/12:30am 23.4 WSW 4 8 1013.7 - - - - 10 - - - -
19/12:00am 23.4 W 4 7 1014.0 - - - - 10 - - - -
 
Date/Time
WST
Temp

°C
Wind Pressure Rain
since 9am
mm
Weather Cloud Vis
km
Sea
Height
m
Swell
Dir
 
Speed
knots
Gust
knots
hPa Trend Height
m
Period
s
Dir
18/11:30pm 23.6 WSW 4 7 1014.5 - - - - 10 - - - -
18/11:00pm 23.9 WSW 5 8 1014.9 - - - - 10 - - - -
18/10:30pm 23.7 WSW 4 7 1015.2 - - - - 10 - - - -
18/10:00pm 23.9 W 3 6 1015.5 - - - - 10 - - - -
18/09:30pm 23.8 W 3 6 1015.7 - - - - 10 - - - -
18/09:00pm 23.8 W 3 5 1015.8 - - - - 10 - - - -
18/08:30pm 24.1 W 3 5 1015.8 - - - - 10 - - - -
18/08:00pm 24.3 W 3 7 1015.6 - - - - 10 - - - -
18/07:30pm 24.4 W 4 6 1015.2 - - - Partly cloudy 10 - - - -
18/07:00pm 24.7 W 4 7 1014.9 - - - - 10 - - - -
18/06:30pm 24.9 W 4 6 1014.5 - - - - 10 - - - -
18/06:00pm 25.4 W 5 9 1014.1 - - - - 10 - - - -
18/05:30pm 25.9 W 6 11 1013.5 - - - - 10 - - - -
18/05:00pm 26.9 W 7 13 1013.0 - - - - 10 - - - -
18/04:30pm 27.9 W 6 10 1012.7 - - - - 10 - - - -
18/04:00pm 28.2 W 8 16 1012.7 - - - - 10 - - - -
18/03:30pm 28.4 W 9 14 1012.6 - - - - 10 - - - -
18/03:00pm 29.1 W 7 12 1012.7 - - - - 10 - - - -
18/02:30pm 29.1 W 8 16 1012.8 - - - - 10 - - - -
18/02:00pm 29.4 WNW 8 15 1012.9 - - - - 10 - - - -
18/01:30pm 29.5 W 9 15 1013.4 - - - - 10 - - - -
18/01:00pm 30.1 WNW 7 11 1013.8 - - - - 10 - - - -
18/12:30pm 29.5 WNW 8 12 1014.2 - - - - 10 - - - -
18/12:00pm 29.5 W 7 13 1014.7 - - - - 10 - - - -
18/11:30am 29.0 WNW 7 11 1015.3 - 0.0 - - 10 - - - -
18/11:00am 29.5 NW 6 11 1015.7 - 0.0 - - 10 - - - -
18/10:00am 29.1 W 6 9 1016.5 - 0.0 - - 10 - - - -
18/09:30am 29.1 W 6 10 1016.7 - 0.0 - - 10 - - - -
18/09:00am 28.6 W 5 9 1016.8 - - Recent precip. - 10 - - - -
18/08:30am 27.0 W 4 7 1017.1 - - - - 10 - - - -
18/08:00am 26.1 W 4 7 1017.1 - - - - 10 - - - -
18/07:30am 25.4 W 4 7 1016.7 - - - - 10 - - - -
18/07:00am 24.3 W 3 5 1016.3 - - - - 10 - - - -
18/06:30am 22.2 W 2 3 1016.1 - - - Partly cloudy 10 - - - -
18/06:00am 20.4 N 1 1 1015.8 - - - - 10 - - - -
18/05:52am 20.3 CALM 0 1 1015.8 - - - - 10 - - - -
18/05:30am 20.6 CALM 0 2 1015.6 - - - - 3 - - - -
18/05:00am 21.0 SSE 1 1 1015.4 - - - - 2 - - - -
18/04:49am 21.5 WSW 1 2 1015.2 - - - - 4 - - - -
18/04:30am 22.7 W 2 7 1014.9 - - - Partly cloudy 10 - - - -
18/04:00am 23.0 W 4 6 1014.4 - - - - 10 - - - -
18/03:30am 23.0 W 3 7 1014.3 - - - Partly cloudy 10 - - - -
18/03:00am 23.2 WNW 4 7 1014.0 - 0.0 - Partly cloudy 10 - - - -
18/02:30am 23.2 W 5 10 1014.0 - - - - 10 - - - -
18/02:00am 23.3 W 5 9 1013.7 - - - Partly cloudy 10 - - - -
18/01:30am 23.4 W 5 8 1013.9 - - - Partly cloudy 10 - - - -
18/01:00am 23.2 WNW 4 6 1014.0 - - - - 10 - - - -
18/12:30am 23.0 W 4 7 1014.2 - - - - 10 - - - -
18/12:00am 23.0 W 3 5 1014.4 - - - - 10 - - - -
 
Date/Time
WST
Temp

°C
Wind Pressure Rain
since 9am
mm
Weather Cloud Vis
km
Sea
Height
m
Swell
Dir
 
Speed
knots
Gust
knots
hPa Trend Height
m
Period
s
Dir
17/11:30pm 23.2 W 3 6 1014.5 - - - Partly cloudy 10 - - - -
17/11:00pm 23.3 W 3 7 1014.7 - - - Partly cloudy 10 - - - -
17/10:30pm 23.2 W 3 5 1015.0 - - - Partly cloudy 10 - - - -
17/10:00pm 23.1 W 3 5 1015.0 - - - Partly cloudy 10 - - - -
17/09:30pm 23.1 W 3 6 1015.0 - - - - 10 - - - -
17/09:00pm 23.2 W 3 5 1014.9 - 0.0 - - 10 - - - -
17/08:30pm 22.9 W 3 5 1014.8 - - - - 10 - - - -
17/08:00pm 23.0 WSW 3 5 1014.4 - - - - 10 - - - -
17/07:30pm 23.2 W 2 4 1014.2 - - - - 10 - - - -
17/07:00pm 23.5 W 3 5 1013.8 - - - - 10 - - - -
17/06:30pm 23.9 W 3 6 1013.6 - - - - 10 - - - -
17/06:00pm 24.5 W 4 7 1013.3 - - - - 10 - - - -
17/05:30pm 25.2 W 5 8 1013.0 - - - - 10 - - - -
17/05:00pm 26.1 WNW 6 10 1012.7 - - - - 10 - - - -
17/04:30pm 26.6 WNW 7 11 1012.6 - - - - 10 - - - -
17/04:00pm 27.2 WNW 7 11 1012.4 - - - - 10 - - - -
17/03:30pm 26.9 WNW 6 12 1012.4 - - - - 10 - - - -
17/03:00pm 26.8 WNW 8 12 1012.6 - - - Mostly clear 10 - - - -
17/02:30pm 27.6 NNW 8 13 1012.8 - - - Partly cloudy 10 - - - -
17/02:00pm 27.7 NW 8 12 1012.8 - - - Partly cloudy 10 - - - -
17/01:30pm 27.8 NW 8 14 1013.0 - - - - 10 - - - -
17/01:00pm 27.6 WNW 8 15 1013.3 - - - Partly cloudy 10 - - - -
17/12:30pm 27.5 NW 8 14 1013.6 - - - - 10 - - - -
17/12:00pm 27.8 WNW 8 12 1014.0 - - - - 10 - - - -
17/11:30am 28.3 NW 7 11 1014.5 - 0.2 - - 10 - - - -
17/11:00am 28.9 NW 7 12 1014.8 - 0.2 - - 10 - - - -
17/10:30am 27.7 WNW 7 11 1015.1 - 0.2 - - 10 - - - -
17/10:00am 28.0 NW 6 10 1015.3 - 0.0 - - 10 - - - -
17/09:30am 27.6 NW 6 10 1015.4 - 0.0 - - 10 - - - -
17/09:00am 26.7 NW 6 10 1015.3 - 0.2 - - 10 - - - -
17/08:30am 26.5 N 4 7 1015.2 - 0.2 - Partly cloudy 10 - - - -
17/08:00am 25.5 NNW 5 9 1014.9 - 0.2 - Partly cloudy 10 - - - -
17/07:30am 24.3 N 4 6 1014.5 - 0.2 - - 10 - - - -
17/07:00am 23.2 N 3 6 1014.2 - 0.2 - - 10 - - - -
17/06:30am 22.4 N 3 5 1013.8 - 0.2 - - 10 - - - -
17/06:00am 21.8 N 3 4 1013.6 - 0.2 - - 10 - - - -
17/05:30am 21.7 N 3 5 1013.2 - 0.2 - - 10 - - - -
17/05:00am 21.6 NNE 3 4 1013.1 - 0.2 - - 10 - - - -
17/04:31am 21.5 NNE 3 4 1012.6 - 0.2 - Partly cloudy 10 - - - -
17/04:30am 21.5 NNE 3 4 1012.6 - 0.2 - Partly cloudy 10 - - - -
17/04:04am 21.9 ENE 2 3 1012.4 - 0.2 - Partly cloudy 8 - - - -
17/04:00am 22.0 ENE 2 3 1012.4 - 0.2 - Partly cloudy 8 - - - -
17/03:30am 21.1 E 2 4 1012.0 - 0.2 - Cloudy 0.1 - - - -
17/03:00am 20.4 E 2 5 1011.5 - 0.2 - Cloudy 0.1 - - - -
17/02:30am 20.8 NE 1 2 1011.3 - 0.2 - Cloudy 0.2 - - - -
17/02:00am 20.5 CALM 0 1 1011.4 - 0.2 - Partly cloudy 1 - - - -
17/01:44am 21.3 WNW 1 3 1011.3 - 0.2 - Partly cloudy 2 - - - -
17/01:39am 22.0 NNW 1 3 1011.3 - 0.2 - Partly cloudy 8 - - - -
17/01:30am 21.5 NE 1 3 1011.3 - 0.2 - Partly cloudy 5 - - - -
17/01:24am 22.1 NW 1 3 1011.4 - 0.2 - Partly cloudy 0.5 - - - -
17/01:10am 22.2 W 1 3 1011.2 - 0.2 - Partly cloudy 4 - - - -
17/01:00am 23.0 W 2 3 1011.2 - 0.2 - - 9 - - - -
17/12:30am 23.0 W 3 6 1011.2 - 0.0 - - 9 - - - -
17/12:00am 23.1 WNW 3 6 1011.3 - 0.0 - - 10 - - - -
 
Date/Time
WST
Temp

°C
Wind Pressure Rain
since 9am
mm
Weather Cloud Vis
km
Sea
Height
m
Swell
Dir
 
Speed
knots
Gust
knots
hPa Trend Height
m
Period
s
Dir
16/11:30pm 23.3 W 4 8 1011.6 - 0.0 - Partly cloudy 10 - - - -
16/11:00pm 23.2 W 4 6 1012.0 - 0.0 - - 9 - - - -
16/10:30pm 23.3 W 3 6 1012.0 - 0.0 - - 10 - - - -
16/10:00pm 23.3 WNW 3 7 1012.1 - 0.0 - Partly cloudy 10 - - - -
16/09:30pm 23.1 W 4 8 1012.2 - 0.0 - - 10 - - - -
16/09:00pm 22.9 NW 3 5 1012.4 - 0.0 - - 10 - - - -
16/08:30pm 23.0 WSW 4 8 1012.1 - 0.0 - - 10 - - - -
16/08:00pm 23.2 WSW 4 6 1012.1 - 0.0 - - 10 - - - -
16/07:30pm 23.2 WSW 3 5 1011.8 - 0.0 - - 10 - - - -
16/07:00pm 23.5 W 3 6 1011.3 - 0.0 - - 10 - - - -
16/06:30pm 24.0 W 4 6 1011.0 - 0.0 - - 10 - - - -
16/06:00pm 24.4 W 3 6 1010.5 - 0.0 - - 10 - - - -
16/05:30pm 25.3 WNW 4 8 1010.4 - 0.0 - - 10 - - - -
16/05:00pm 26.1 WNW 6 10 1010.2 - 0.0 - - 10 - - - -
16/04:30pm 27.0 WNW 6 10 1010.1 - 0.0 - - 10 - - - -
16/04:00pm 27.7 WNW 7 11 1010.0 - 0.0 - - 10 - - - -
16/03:30pm 27.1 NW 8 11 1009.8 - 0.0 - - 10 - - - -
16/03:00pm 27.4 NW 8 11 1009.9 - 0.0 - - 10 - - - -
16/02:30pm 28.1 WNW 7 12 1010.0 - 0.0 - - 10 - - - -
16/02:00pm 27.4 NW 8 12 1010.3 - 0.0 - - 10 - - - -
16/01:30pm 27.8 WNW 8 12 1010.6 - 0.0 - - 10 - - - -
16/01:00pm 27.4 NW 9 13 1011.1 - 0.0 - - 10 - - - -
16/12:30pm 27.6 NW 7 11 1011.5 - 0.0 - - 10 - - - -
16/12:00pm 27.7 NW 7 11 1012.1 - 0.0 - - 10 - - - -
16/11:30am 28.2 WNW 7 11 1012.6 - 0.0 - - 10 - - - -
16/11:00am 27.2 NW 7 11 1013.0 - 0.0 - - 10 - - - -
16/10:30am 28.2 NW 5 8 1013.2 - 0.0 - - 10 - - - -
16/10:00am 28.1 NW 5 9 1013.4 - 0.0 - - 10 - - - -
16/09:30am 27.4 WNW 4 7 1013.6 - 0.0 - - 10 - - - -
16/09:00am 26.6 WNW 5 8 1013.5 - 0.4 - - 10 - - - -
16/08:30am 26.3 WNW 3 6 1013.7 - 0.4 - Partly cloudy 10 - - - -
16/08:24am 26.3 NW 2 5 1013.7 - 0.4 - Partly cloudy 10 - - - -
16/08:00am 25.7 NNE 3 4 1013.8 - 0.4 - Partly cloudy 10 - - - -
16/07:58am 25.5 NNE 3 4 1013.8 - 0.4 - Partly cloudy 10 - - - -
16/07:30am 24.9 NE 2 4 1013.6 - 0.4 - - 10 - - - -
16/07:00am 23.5 E 1 3 1013.3 - 0.4 - Partly cloudy 10 - - - -
16/06:58am 23.3 E 1 2 1013.3 - 0.4 - Partly cloudy 10 - - - -
16/06:55am 23.1 E 1 2 1013.3 - 0.4 - Partly cloudy 10 - - - -
16/06:30am 21.9 E 2 4 1013.0 - 0.4 - Cloudy 0.3 - - - -
16/06:00am 21.0 E 3 4 1012.5 - 0.4 - Cloudy 0.1 - - - -
16/05:30am 20.8 ESE 2 4 1012.3 - 0.4 - Partly cloudy 3 - - - -
16/05:00am 21.1 N 1 2 1011.6 - 0.4 - Partly cloudy 3 - - - -
16/04:34am 21.0 CALM 0 1 1011.4 - 0.2 - Partly cloudy 3 - - - -
16/04:30am 21.8 CALM 0 2 1011.4 - 0.2 - Partly cloudy 10 - - - -
16/04:29am 21.8 CALM 0 2 1011.4 - 0.2 - Partly cloudy 10 - - - -
16/04:09am 21.6 W 2 4 1011.1 - 0.2 - Partly cloudy 3 - - - -
16/04:06am 21.7 W 1 3 1011.2 - 0.2 - Partly cloudy 8 - - - -
16/04:00am 22.3 WNW 1 3 1011.2 - 0.2 - Partly cloudy 10 - - - -

Other Formats:

Comma delimited format used in spreadsheet applications
http://www.bom.gov.au/fwo/IDW60701/IDW60701.99206.axf

JavaScript Object Notation format (JSON) in row-major order
http://www.bom.gov.au/fwo/IDW60701/IDW60701.99206.json